Mumbai, India

11:39 AM IST on April 30, 2017 (GMT +0530)
Chhatrapati Shivaji International

Weather History for VABB - December, 2013

Change the Weather History Date:

Wednesday, December 25, 2013

  Actual Average Record
Temperature  
Mean Temperature 78 °F -  
Max Temperature 90 °F 86 °F 95 °F (2000)
Min Temperature 66 °F 66 °F 61 °F (2014)
Cooling Degree Days 13    
Growing Degree Days 28 (Base 50)    
Moisture  
Dew Point 62 °F    
Average Humidity 57    
Maximum Humidity 80    
Minimum Humidity 30    
Precipitation  
Precipitation 0.00 in - - ()
Sea Level Pressure  
Sea Level Pressure 29.99 in    
Wind  
Wind Speed 4 mph ()    
Max Wind Speed 10 mph    
Max Gust Speed -    
Visibility 1.4 miles    
Events      
Averages and records for this station are not official NWS values.
T = Trace of Precipitation, MM = Missing Value Source: Averaged Metar Reports

Daily Weather History Graph

Daily Weather History Graph

Search for Another Location

Airport or City:

Trip Planner

Search our weather history database for the weather conditions in past years. The results will help you decide how hot, cold, wet, or windy it might be!

Date:

Astronomy

Dec. 25, 2013 Rise Set
Actual Time 7:09 AM IST 6:08 PM IST
Civil Twilight 6:45 AM IST 6:32 PM IST
Nautical Twilight 6:17 AM IST 6:59 PM IST
Astronomical Twilight 5:50 AM IST 7:26 PM IST
Moon No Moon Rise 12:14 PM IST (12/25)
Length of Visible Light 11h 46m
Length of Day
10h 59m
Waning Gibbous, 53% of the Moon is Illuminated
Dec 25
Waning Gibbous
Dec 25
Last Quarter
Jan 1
New
Jan 8
First Quarter
Jan 16
Full

Hourly Weather History & Observations

Time (IST) Temp. Heat Index Dew Point Humidity Pressure Visibility Wind Dir Wind Speed Gust Speed Precip Events Conditions
12:10 AM 77.0 °F - 62.6 °F 61% 30.01 in 1.6 mi North 5.8 mph - N/A   Smoke
12:40 AM 75.2 °F - 62.6 °F 65% 30.01 in 1.6 mi NNE 3.5 mph - N/A   Haze
1:10 AM 75.2 °F - 62.6 °F 65% 30.01 in 1.4 mi Calm Calm - N/A   Haze
1:40 AM 75.2 °F - 62.6 °F 65% 30.01 in 1.3 mi Calm Calm - N/A   Haze
2:10 AM 75.2 °F - 62.6 °F 65% 30.01 in 1.3 mi NE 3.5 mph - N/A   Haze
2:30 AM 71 °F - 64 °F 71% 30.01 in 1 mi Calm Calm - -   Haze
2:40 AM 75.2 °F - 62.6 °F 65% 30.01 in 1.4 mi NNE 4.6 mph - N/A   Haze
3:10 AM 75.2 °F - 62.6 °F 65% 29.98 in 1.4 mi Variable 2.3 mph - N/A   Haze
3:40 AM 73.4 °F - 64.4 °F 73% 29.98 in 1.4 mi NE 3.5 mph - N/A   Haze
4:10 AM 73.4 °F - 62.6 °F 69% 29.98 in 1.1 mi Calm Calm - N/A   Haze
4:40 AM 73.4 °F - 62.6 °F 69% 29.98 in 1.2 mi Calm Calm - N/A   Haze
5:10 AM 73.4 °F - 64.4 °F 73% 29.98 in 1.3 mi ENE 3.5 mph - N/A   Haze
5:30 AM 68 °F - 63 °F 80% 29.99 in 1 mi Calm Calm - -   Haze
5:40 AM 73.4 °F - 64.4 °F 73% 29.98 in 1.1 mi SSE 3.5 mph - N/A   Haze
6:40 AM 73.4 °F - 64.4 °F 73% 30.01 in 0.9 mi SSE 3.5 mph - N/A   Haze
7:10 AM 73.4 °F - 62.6 °F 69% 30.01 in 0.9 mi Variable 3.5 mph - N/A   Haze
7:40 AM 73.4 °F - 62.6 °F 69% 30.01 in 0.8 mi East 3.5 mph - N/A   Haze
8:10 AM 73.4 °F - 64.4 °F 73% 30.04 in 0.8 mi Calm Calm - N/A   Haze
8:30 AM 71 °F - 65 °F 76% 30.03 in 1 mi Calm Calm - -   Haze
9:10 AM 77.0 °F - 62.6 °F 61% 30.06 in 1.1 mi ENE 3.5 mph - N/A   Haze
10:10 AM 82.4 °F 82.9 °F 60.8 °F 48% 30.06 in 1.4 mi ESE 6.9 mph - N/A   Smoke
10:40 AM 84.2 °F 83.8 °F 59.0 °F 42% 30.06 in 1.7 mi ESE 6.9 mph - N/A   Smoke
11:30 AM 86 °F - 59 °F 30% 30.03 in 1 mi SE 4.6 mph - -   Smoke
11:40 AM 86.0 °F 85.4 °F 59.0 °F 40% 30.04 in 1.9 mi ESE 6.9 mph - N/A   Smoke
12:10 PM 87.8 °F 86.5 °F 57.2 °F 35% 30.04 in - ESE 9.2 mph - N/A   Smoke
12:40 PM 87.8 °F 87.1 °F 59.0 °F 38% 30.01 in - SSE 5.8 mph - N/A   Smoke
1:40 PM 86.0 °F 88.2 °F 66.2 °F 51% 29.98 in 1.6 mi West 10.4 mph - N/A   Smoke
2:10 PM 86.0 °F 86.6 °F 62.6 °F 45% 29.95 in 1.6 mi West 9.2 mph - N/A   Smoke
2:30 PM 86 °F - 62 °F 34% 29.96 in 1 mi West 6.9 mph - -   Smoke
2:40 PM 84.2 °F 85.0 °F 62.6 °F 48% 29.95 in 1.6 mi WNW 10.4 mph - N/A   Smoke
3:10 PM 84.2 °F 85.0 °F 62.6 °F 48% 29.95 in 1.6 mi West 9.2 mph - N/A   Smoke
3:40 PM 84.2 °F 85.0 °F 62.6 °F 48% 29.95 in 1.6 mi NW 8.1 mph - N/A   Smoke
4:10 PM 84.2 °F 85.0 °F 62.6 °F 48% 29.95 in 1.4 mi WNW 9.2 mph - N/A   Smoke
4:40 PM 84.2 °F 85.0 °F 62.6 °F 48% 29.92 in 1.4 mi WNW 10.4 mph - N/A   Smoke
5:10 PM 84.2 °F 85.0 °F 62.6 °F 48% 29.95 in 1.4 mi NW 9.2 mph - N/A   Smoke
5:30 PM 82 °F - 66 °F 49% 29.94 in 1 mi NW 5.8 mph - -   Smoke
5:40 PM 82.4 °F 84.6 °F 66.2 °F 58% 29.95 in 1.6 mi NNW 6.9 mph - N/A   Smoke
6:10 PM 80.6 °F 82.3 °F 64.4 °F 58% 29.95 in 1.4 mi NW 5.8 mph - N/A   Smoke
6:40 PM 80.6 °F 82.3 °F 64.4 °F 58% 29.95 in 1.4 mi NNW 9.2 mph - N/A   Smoke
7:10 PM 80.6 °F 81.8 °F 62.6 °F 54% 29.95 in 1.7 mi NW 8.1 mph - N/A   Smoke
8:10 PM 80.6 °F 81.8 °F 62.6 °F 54% 29.98 in 1.9 mi North 6.9 mph - N/A   Smoke
8:30 PM 79 °F - 61 °F 45% 29.99 in 1 mi North 5.8 mph - -   Smoke
8:40 PM 80.6 °F 81.5 °F 60.8 °F 51% 30.01 in 1.9 mi ENE 9.2 mph - N/A   Smoke
9:10 PM 80.6 °F 81.5 °F 60.8 °F 51% 30.01 in 1.9 mi NNE 6.9 mph - N/A   Smoke
9:40 PM 80.6 °F 81.1 °F 59.0 °F 48% 30.01 in 1.9 mi ENE 5.8 mph - N/A   Smoke
10:10 PM 80.6 °F 81.1 °F 59.0 °F 48% 30.01 in 1.9 mi East 5.8 mph - N/A   Smoke
10:40 PM 78.8 °F - 60.8 °F 54% 30.01 in 1.7 mi SSE 4.6 mph - N/A   Smoke
11:10 PM 78.8 °F - 60.8 °F 54% 30.01 in 1.7 mi SSE 3.5 mph - N/A   Smoke
11:30 PM 72 °F - 63 °F 66% 30.00 in 1 mi Calm Calm - -   Smoke
11:40 PM 77.0 °F - 60.8 °F 57% 30.01 in 1.7 mi ESE 2.3 mph - N/A   Smoke